Location: Bonningues
(50.7927°N, 2.0150°E)
Time: 21:52:10
(UTC+00:00)

Cosmos 2082 Rocket - Pass Details

Date: 08 August 2020
Orbit: 835 x 852 km, 71.0° (Epoch: 21 September)

Event Time Altitude Azimuth Distance (km) Brightness Sun altitude
Rises 20:03:05 0° 168° (SSE) 3,402 4.9 -6.1°
Reaches altitude 10° 20:05:55 10° 156° (SSE) 2,469 4.1 -6.4°
Maximum altitude 20:10:24 25° 103° (ESE) 1,655 3.2 -7.0°
Drops below altitude 10° 20:14:55 10° 50° (NE) 2,474 4.5 -7.6°
Sets 20:17:45 0° 38° (NE) 3,411 5.4 -7.9°
